,,PA_Meas_PMT16A,,PR_Meas_QMR101_102,,RH_Meas_QMH101,,SR_Meas_QMS101,,TA_Meas_QMH101,,GenWind,,GenWind,
time,status,PA,status,PR,status,RH,status,SR,status,TA,status,DirAvg,status,SpdAvg,
2013-11-15, 00:00:04,VALID,918.025,VALID,0,VALID,97.3205,VALID,0,VALID,19.1388,VALID,344,VALID,0,
2013-11-15, 00:01:04,VALID,918.043,VALID,0,VALID,97.3205,VALID,0,VALID,19.1193,VALID,332,VALID,0,
2013-11-15, 00:02:04,VALID,918.074,VALID,0,VALID,97.3205,VALID,0,VALID,19.1193,VALID,324,VALID,0,
2013-11-15, 00:03:04,VALID,918.035,VALID,0,VALID,97.3281,VALID,0,VALID,19.1597,VALID,21,VALID,0,
2013-11-15, 00:04:04,VALID,917.984,VALID,0,VALID,97.3205,VALID,0,VALID,19.1583,VALID,2,VALID,0,
2013-11-15, 00:05:04,VALID,918.03,VALID,0,VALID,97.3129,VALID,0,VALID,19.1583,VALID,354,VALID,0,
2013-11-15, 00:06:04,VALID,918.002,VALID,0,VALID,97.3358,VALID,0,VALID,19.1583,VALID,354,VALID,0,
2013-11-15, 00:07:04,VALID,918.039,VALID,0,VALID,97.3281,VALID,0,VALID,19.1388,VALID,351,VALID,0,
2013-11-15, 00:08:04,VALID,917.98,VALID,0,VALID,97.3129,VALID,0,VALID,19.1778,VALID,352,VALID,0,
2013-11-15, 00:09:04,VALID,917.961,VALID,0,VALID,97.3129,VALID,0,VALID,19.1778,VALID,19,VALID,0,
2013-11-15, 00:10:04,VALID,917.95,VALID,0,VALID,97.3434,VALID,0,VALID,19.1987,VALID,21,VALID,0,
2013-11-15, 00:11:04,VALID,917.946,VALID,0,VALID,97.3053,VALID,0,VALID,19.2168,VALID,21,VALID,0,
2013-11-15, 00:12:04,VALID,917.931,VALID,0,VALID,97.3205,VALID,0,VALID,19.2168,VALID,16,VALID,0,
2013-11-15, 00:13:04,VALID,917.926,VALID,0,VALID,97.3205,VALID,0,VALID,19.1973,VALID,329,VALID,0,
2013-11-15, 00:14:04,VALID,917.922,VALID,0,VALID,97.3281,VALID,0,VALID,19.1973,VALID,360,VALID,0,
2013-11-15, 00:15:04,VALID,917.921,VALID,0,VALID,97.3129,VALID,0,VALID,19.1763,VALID,6,VALID,0,
2013-11-15, 00:16:04,VALID,917.904,VALID,0,VALID,97.3205,VALID,0,VALID,19.1778,VALID,10,VALID,0,
2013-11-15, 00:17:04,VALID,917.877,VALID,0,VALID,97.3281,VALID,0,VALID,19.1778,VALID,19,VALID,0,
2013-11-15, 00:18:04,VALID,917.861,VALID,0,VALID,97.3281,VALID,0,VALID,19.1583,VALID,10,VALID,0,
2013-11-15, 00:19:04,VALID,917.808,VALID,0,VALID,97.3281,VALID,0,VALID,19.1193,VALID,351,VALID,0,
2013-11-15, 00:20:04,VALID,917.804,VALID,0,VALID,97.3434,VALID,0,VALID,19.0608,VALID,359,VALID,0,
2013-11-15, 00:21:04,VALID,917.793,VALID,0,VALID,97.3358,VALID,0,VALID,19.0998,VALID,295,VALID,0,
2013-11-15, 00:22:04,VALID,917.763,VALID,0,VALID,97.3434,VALID,0,VALID,19.0608,VALID,305,VALID,0,
2013-11-15, 00:23:04,VALID,917.761,VALID,0,VALID,97.3281,VALID,0,VALID,19.0803,VALID,16,VALID,0,
2013-11-15, 00:24:04,VALID,917.761,VALID,0,VALID,97.3281,VALID,0,VALID,19.0998,VALID,360,VALID,0,
2013-11-15, 00:25:04,VALID,917.682,VALID,0,VALID,97.3434,VALID,0,VALID,19.1388,VALID,360,VALID,0,
2013-11-15, 00:26:04,VALID,917.715,VALID,0,VALID,97.3358,VALID,0,VALID,19.1388,VALID,301,VALID,0,
2013-11-15, 00:27:04,VALID,917.682,VALID,0,VALID,97.351,VALID,0,VALID,19.1388,VALID,304,VALID,0,
2013-11-15, 00:28:04,VALID,917.672,VALID,0,VALID,97.3434,VALID,0,VALID,19.1388,VALID,329,VALID,0,
2013-11-15, 00:29:05,VALID,917.664,VALID,0,VALID,97.3281,VALID,0,VALID,19.1388,VALID,24,VALID,0,
2013-11-15, 00:30:05,VALID,917.672,VALID,0,VALID,97.3358,VALID,0,VALID,19.1583,VALID,28,VALID,0,
2013-11-15, 00:31:05,VALID,917.632,VALID,0,VALID,97.351,VALID,0.107441,VALID,19.1778,VALID,24,VALID,0,
2013-11-15, 00:32:05,VALID,917.635,VALID,0,VALID,97.3281,VALID,0,VALID,19.1778,VALID,27,VALID,0,
2013-11-15, 00:33:05,VALID,917.604,VALID,0,VALID,97.3281,VALID,0,VALID,19.1583,VALID,127,VALID,0,
2013-11-15, 00:34:05,VALID,917.591,VALID,0,VALID,97.3281,VALID,0,VALID,19.1388,VALID,49,VALID,0,
2013-11-15, 00:35:05,VALID,917.584,VALID,0,VALID,97.3358,VALID,0,VALID,19.1388,VALID,49,VALID,0,
2013-11-15, 00:36:05,VALID,917.543,VALID,0,VALID,97.3281,VALID,0,VALID,19.0788,VALID,56,VALID,0,
2013-11-15, 00:37:05,VALID,917.547,VALID,0,VALID,97.3434,VALID,0,VALID,19.0803,VALID,37,VALID,0,
2013-11-15, 00:38:05,VALID,917.506,VALID,0,VALID,97.3586,VALID,0.107441,VALID,19.0803,VALID,38,VALID,0,
2013-11-15, 00:39:05,VALID,917.514,VALID,0.2,VALID,97.3434,VALID,0,VALID,19.0803,VALID,32,VALID,0,
2013-11-15, 00:40:05,VALID,917.529,VALID,0,VALID,97.351,VALID,0,VALID,19.0608,VALID,232,VALID,0,
2013-11-15, 00:41:05,VALID,917.513,VALID,0,VALID,97.3434,VALID,0,VALID,19.0413,VALID,239,VALID,0,
2013-11-15, 00:42:05,VALID,917.515,VALID,0,VALID,97.351,VALID,0,VALID,19.0413,VALID,239,VALID,0,
2013-11-15, 00:43:05,VALID,917.539,VALID,0.2,VALID,97.351,VALID,0,VALID,19.0413,VALID,239,VALID,0,
2013-11-15, 00:44:05,VALID,917.532,VALID,0,VALID,97.3358,VALID,0,VALID,19.0608,VALID,223,VALID,0,
2013-11-15, 00:45:05,VALID,917.55,VALID,0.2,VALID,97.3358,VALID,0,VALID,19.0803,VALID,32,VALID,0,
2013-11-15, 00:46:05,VALID,917.534,VALID,0,VALID,97.3434,VALID,0,VALID,19.0998,VALID,273,VALID,0,
2013-11-15, 00:47:05,VALID,917.532,VALID,0,VALID,97.3434,VALID,0,VALID,19.0593,VALID,296,VALID,0,
2013-11-15, 00:48:05,VALID,917.514,VALID,0.2,VALID,97.3586,VALID,0,VALID,19.1193,VALID,28,VALID,0,
2013-11-15, 00:49:05,VALID,917.519,VALID,0,VALID,97.3434,VALID,0,VALID,19.0998,VALID,276,VALID,0,
2013-11-15, 00:50:05,VALID,917.521,VALID,0,VALID,97.3358,VALID,0,VALID,19.0998,VALID,28,VALID,0,
2013-11-15, 00:51:05,VALID,917.519,VALID,0,VALID,97.351,VALID,0,VALID,19.0998,VALID,18,VALID,0,
2013-11-15, 00:52:05,VALID,917.382,VALID,0,VALID,97.3739,VALID,0,VALID,19.0803,VALID,217,VALID,0,
2013-11-15, 00:53:05,VALID,917.453,VALID,0,VALID,97.3434,VALID,0,VALID,19.0803,VALID,223,VALID,0,
2013-11-15, 00:54:05,VALID,917.435,VALID,0,VALID,97.3586,VALID,0,VALID,19.0608,VALID,254,VALID,0,
2013-11-15, 00:55:05,VALID,917.455,VALID,0,VALID,97.3434,VALID,0,VALID,19.0608,VALID,123,VALID,0,
2013-11-15, 00:56:05,VALID,917.476,VALID,0,VALID,97.351,VALID,0,VALID,19.0593,VALID,353,VALID,0,
2013-11-15, 00:57:05,VALID,917.495,VALID,0,VALID,97.3434,VALID,0,VALID,19.0398,VALID,20,VALID,0,
2013-11-15, 00:58:05,VALID,917.491,VALID,0,VALID,97.3663,VALID,0,VALID,19.0803,VALID,151,VALID,0,
2013-11-15, 00:59:05,VALID,917.438,VALID,0,VALID,97.351,VALID,0,VALID,19.0608,VALID,24,VALID,0,
2013-11-15, 01:00:05,VALID,917.44,VALID,0,VALID,97.3663,VALID,0,VALID,19.0803,VALID,71,VALID,0,
2013-11-15, 01:01:05,VALID,917.509,VALID,0.2,VALID,97.3586,VALID,0,VALID,19.0593,VALID,277,VALID,0,
2013-11-15, 01:02:05,VALID,917.498,VALID,0,VALID,97.3586,VALID,0,VALID,19.0788,VALID,235,VALID,0,
2013-11-15, 01:03:05,VALID,917.502,VALID,0,VALID,97.3663,VALID,0,VALID,19.0803,VALID,239,VALID,0,
2013-11-15, 01:04:05,VALID,917.435,VALID,0,VALID,97.3739,VALID,0,VALID,19.0803,VALID,55,VALID,0,
2013-11-15, 01:05:05,VALID,917.464,VALID,0,VALID,97.3891,VALID,0,VALID,19.0803,VALID,229,VALID,0,
2013-11-15, 01:06:05,VALID,917.495,VALID,0.2,VALID,97.3586,VALID,0,VALID,19.0803,VALID,341,VALID,0,
2013-11-15, 01:07:05,VALID,917.466,VALID,0,VALID,97.3739,VALID,0,VALID,19.0608,VALID,242,VALID,0,
2013-11-15, 01:08:05,VALID,917.458,VALID,0,VALID,97.3434,VALID,0,VALID,19.0608,VALID,38,VALID,0,
2013-11-15, 01:09:05,VALID,917.449,VALID,0.2,VALID,97.3586,VALID,0,VALID,19.0413,VALID,49,VALID,0,
2013-11-15, 01:10:05,VALID,917.423,VALID,0,VALID,97.3663,VALID,0,VALID,19.0608,VALID,80,VALID,0,
2013-11-15, 01:11:05,VALID,917.513,VALID,0,VALID,97.3815,VALID,0,VALID,19.0608,VALID,273,VALID,0,
2013-11-15, 01:12:05,VALID,917.458,VALID,0,VALID,97.3663,VALID,0,VALID,19.0413,VALID,40,VALID,0,
2013-11-15, 01:13:05,VALID,917.464,VALID,0,VALID,97.3663,VALID,0,VALID,19.0413,VALID,254,VALID,0,
2013-11-15, 01:14:05,VALID,917.479,VALID,0,VALID,97.3663,VALID,0,VALID,19.0413,VALID,42,VALID,0,
2013-11-15, 01:15:05,VALID,917.541,VALID,0.2,VALID,97.351,VALID,0,VALID,19.0608,VALID,5,VALID,0,
2013-11-15, 01:16:05,VALID,917.497,VALID,0,VALID,97.3663,VALID,0,VALID,19.0608,VALID,7,VALID,0,
2013-11-15, 01:17:05,VALID,917.526,VALID,0,VALID,97.3739,VALID,0,VALID,19.0803,VALID,156,VALID,0,
2013-11-15, 01:18:05,VALID,917.582,VALID,0,VALID,97.3815,VALID,0,VALID,19.0218,VALID,272,VALID,0,
2013-11-15, 01:19:05,VALID,917.407,VALID,0,VALID,97.3739,VALID,0,VALID,19.0023,VALID,9,VALID,0,
2013-11-15, 01:20:05,VALID,917.379,VALID,0.2,VALID,97.3663,VALID,0,VALID,19.0413,VALID,30,VALID,0,
2013-11-15, 01:21:05,VALID,917.486,VALID,0,VALID,97.3891,VALID,0,VALID,19.0218,VALID,6,VALID,0,
2013-11-15, 01:22:05,VALID,917.397,VALID,0,VALID,97.3815,VALID,0,VALID,19.0023,VALID,356,VALID,0,
2013-11-15, 01:23:05,VALID,917.396,VALID,0,VALID,97.3815,VALID,0,VALID,18.9828,VALID,1,VALID,0,
2013-11-15, 01:24:05,VALID,917.282,VALID,0,VALID,97.3968,VALID,0,VALID,18.9619,VALID,17,VALID,0,
2013-11-15, 01:25:05,VALID,917.299,VALID,0,VALID,97.3815,VALID,0,VALID,18.9828,VALID,16,VALID,0,
2013-11-15, 01:26:05,VALID,917.297,VALID,0,VALID,97.3968,VALID,0,VALID,18.9438,VALID,21,VALID,0,
2013-11-15, 01:27:05,VALID,917.283,VALID,0,VALID,97.3891,VALID,0,VALID,18.9438,VALID,25,VALID,0,
2013-11-15, 01:28:05,VALID,917.272,VALID,0,VALID,97.3968,VALID,0,VALID,18.9243,VALID,314,VALID,0,
2013-11-15, 01:29:05,VALID,917.288,VALID,0,VALID,97.3891,VALID,0,VALID,18.9243,VALID,34,VALID,0,
2013-11-15, 01:30:05,VALID,916.984,VALID,0,VALID,97.3739,VALID,0,VALID,18.9438,VALID,17,VALID,0,
2013-11-15, 01:31:05,VALID,917.327,VALID,0,VALID,97.3891,VALID,0,VALID,18.9243,VALID,16,VALID,0,
2013-11-15, 01:32:05,VALID,917.26,VALID,0,VALID,97.4044,VALID,0,VALID,18.9048,VALID,33,VALID,0,
2013-11-15, 01:33:05,VALID,917.257,VALID,0,VALID,97.412,VALID,0,VALID,18.9034,VALID,208,VALID,0,
2013-11-15, 01:34:05,VALID,917.228,VALID,0,VALID,97.3891,VALID,0,VALID,18.9048,VALID,17,VALID,0,
2013-11-15, 01:35:05,VALID,917.188,VALID,0,VALID,97.3891,VALID,0,VALID,18.9048,VALID,25,VALID,0,
2013-11-15, 01:36:05,VALID,917.149,VALID,0.2,VALID,97.3891,VALID,0,VALID,18.9243,VALID,19,VALID,0,
2013-11-15, 01:37:05,VALID,917.213,VALID,0,VALID,97.3968,VALID,0,VALID,18.9243,VALID,18,VALID,0,
2013-11-15, 01:38:05,VALID,917.217,VALID,0,VALID,97.3891,VALID,0,VALID,18.9034,VALID,62,VALID,0,
2013-11-15, 01:39:05,VALID,917.145,VALID,0,VALID,97.4044,VALID,0,VALID,18.9243,VALID,14,VALID,0,
2013-11-15, 01:40:05,VALID,917.167,VALID,0,VALID,97.4044,VALID,0,VALID,18.9034,VALID,63,VALID,0,
2013-11-15, 01:41:05,VALID,917.203,VALID,0,VALID,97.4044,VALID,0,VALID,18.9243,VALID,229,VALID,0,
2013-11-15, 01:42:05,VALID,917.195,VALID,0,VALID,97.412,VALID,0,VALID,18.9243,VALID,100,VALID,0,
2013-11-15, 01:43:05,VALID,917.188,VALID,0,VALID,97.4044,VALID,0,VALID,18.9048,VALID,22,VALID,0,
2013-11-15, 01:44:05,VALID,917.209,VALID,0,VALID,97.3968,VALID,0,VALID,18.9048,VALID,1,VALID,0,
2013-11-15, 01:45:05,VALID,917.194,VALID,0,VALID,97.3968,VALID,0,VALID,18.8839,VALID,104,VALID,0,
2013-11-15, 01:46:05,VALID,917.167,VALID,0,VALID,97.4044,VALID,0,VALID,18.9048,VALID,23,VALID,0,
2013-11-15, 01:47:05,VALID,917.141,VALID,0,VALID,97.3968,VALID,0,VALID,18.9048,VALID,319,VALID,0,
2013-11-15, 01:48:05,VALID,917.115,VALID,0,VALID,97.412,VALID,0.107441,VALID,18.9048,VALID,356,VALID,0,
2013-11-15, 01:49:05,VALID,917.12,VALID,0.2,VALID,97.3968,VALID,0.107441,VALID,18.8839,VALID,14,VALID,0,
2013-11-15, 01:50:05,VALID,917.094,VALID,0.2,VALID,97.4044,VALID,0,VALID,18.9229,VALID,56,VALID,0,
2013-11-15, 01:51:05,VALID,917.073,VALID,0,VALID,97.412,VALID,0,VALID,18.9243,VALID,30,VALID,0,
2013-11-15, 01:52:05,VALID,917.015,VALID,0.2,VALID,97.412,VALID,0,VALID,18.9048,VALID,19,VALID,0,
2013-11-15, 01:53:05,VALID,916.987,VALID,0,VALID,97.4044,VALID,0,VALID,18.8839,VALID,21,VALID,0,
2013-11-15, 01:54:05,VALID,917.017,VALID,0.2,VALID,97.4044,VALID,0,VALID,18.9034,VALID,12,VALID,0,
2013-11-15, 01:55:05,VALID,916.983,VALID,0,VALID,97.4196,VALID,0,VALID,18.9048,VALID,12,VALID,0,
2013-11-15, 01:56:05,VALID,916.934,VALID,0.2,VALID,97.412,VALID,0,VALID,18.9243,VALID,10,VALID,0,
2013-11-15, 01:57:05,VALID,916.926,VALID,0.2,VALID,97.4273,VALID,0,VALID,18.8839,VALID,9,VALID,0,
2013-11-15, 01:58:05,VALID,916.954,VALID,0,VALID,97.4196,VALID,0,VALID,18.8853,VALID,20,VALID,0,
2013-11-15, 01:59:05,VALID,916.904,VALID,0.2,VALID,97.4044,VALID,0,VALID,18.8853,VALID,27,VALID,0,
2013-11-15, 02:00:05,VALID,916.904,VALID,0.2,VALID,97.4425,VALID,0,VALID,18.8853,VALID,25,VALID,0,
2013-11-15, 02:01:05,VALID,916.958,VALID,0.2,VALID,97.4196,VALID,0,VALID,18.8853,VALID,302,VALID,0,
2013-11-15, 02:02:05,VALID,916.954,VALID,0.2,VALID,97.4273,VALID,0,VALID,18.9048,VALID,37,VALID,0,
2013-11-15, 02:03:05,VALID,916.881,VALID,0.2,VALID,97.4273,VALID,0,VALID,18.8853,VALID,37,VALID,0,
2013-11-15, 02:04:05,VALID,916.903,VALID,0.2,VALID,97.4196,VALID,0,VALID,18.8853,VALID,5,VALID,0,
2013-11-15, 02:05:05,VALID,916.881,VALID,0.2,VALID,97.4349,VALID,0,VALID,18.8853,VALID,28,VALID,0,
2013-11-15, 02:06:05,VALID,916.873,VALID,0.2,VALID,97.4196,VALID,0,VALID,18.9048,VALID,27,VALID,0,
2013-11-15, 02:07:05,VALID,916.855,VALID,0.2,VALID,97.4273,VALID,0,VALID,18.8658,VALID,13,VALID,0,
2013-11-15, 02:08:05,VALID,916.833,VALID,0.2,VALID,97.4349,VALID,0,VALID,18.8853,VALID,34,VALID,0,
2013-11-15, 02:09:05,VALID,916.894,VALID,0,VALID,97.412,VALID,0,VALID,18.8449,VALID,297,VALID,0,
2013-11-15, 02:10:05,VALID,916.854,VALID,0.2,VALID,97.4425,VALID,0,VALID,18.8658,VALID,17,VALID,0,
2013-11-15, 02:11:05,VALID,916.889,VALID,0,VALID,97.4196,VALID,0,VALID,18.8658,VALID,21,VALID,0,
2013-11-15, 02:12:05,VALID,916.842,VALID,0,VALID,97.4273,VALID,0,VALID,18.8463,VALID,17,VALID,0,
2013-11-15, 02:13:05,VALID,916.869,VALID,0.2,VALID,97.4273,VALID,0,VALID,18.8853,VALID,21,VALID,0,
2013-11-15, 02:14:05,VALID,916.844,VALID,0,VALID,97.4196,VALID,0,VALID,18.8853,VALID,22,VALID,0,
2013-11-15, 02:15:05,VALID,916.835,VALID,0,VALID,97.4349,VALID,0,VALID,18.8463,VALID,312,VALID,0,
2013-11-15, 02:16:05,VALID,916.905,VALID,0,VALID,97.4425,VALID,0,VALID,18.8059,VALID,294,VALID,0,
2013-11-15, 02:17:05,VALID,916.875,VALID,0.2,VALID,97.4501,VALID,0,VALID,18.8254,VALID,18,VALID,0,
2013-11-15, 02:18:05,VALID,916.871,VALID,0,VALID,97.4425,VALID,0,VALID,18.8268,VALID,342,VALID,0,
2013-11-15, 02:19:05,VALID,916.844,VALID,0,VALID,97.4196,VALID,0,VALID,18.8254,VALID,32,VALID,0,
2013-11-15, 02:20:05,VALID,916.809,VALID,0,VALID,97.4349,VALID,0,VALID,18.8268,VALID,39,VALID,0,
2013-11-15, 02:21:05,VALID,916.784,VALID,0,VALID,97.4577,VALID,0,VALID,18.8268,VALID,12,VALID,0,
2013-11-15, 02:22:05,VALID,916.803,VALID,0,VALID,97.4349,VALID,0.107441,VALID,18.8463,VALID,28,VALID,0,
2013-11-15, 02:23:05,VALID,916.745,VALID,0,VALID,97.4273,VALID,0,VALID,18.8254,VALID,26,VALID,0,
2013-11-15, 02:24:05,VALID,916.741,VALID,0,VALID,97.4425,VALID,0,VALID,18.8059,VALID,16,VALID,0,
2013-11-15, 02:25:05,VALID,916.737,VALID,0,VALID,97.4425,VALID,0,VALID,18.8073,VALID,11,VALID,0,
2013-11-15, 02:26:05,VALID,916.705,VALID,0,VALID,97.4501,VALID,0,VALID,18.7669,VALID,348,VALID,0,
2013-11-15, 02:27:05,VALID,916.685,VALID,0,VALID,97.4501,VALID,0,VALID,18.7084,VALID,360,VALID,0,
2013-11-15, 02:28:05,VALID,916.626,VALID,0,VALID,97.4501,VALID,0,VALID,18.7488,VALID,22,VALID,0,
2013-11-15, 02:29:05,VALID,916.59,VALID,0,VALID,97.4577,VALID,0,VALID,18.7293,VALID,30,VALID,0,
2013-11-15, 02:30:05,VALID,916.592,VALID,0.2,VALID,97.4577,VALID,0,VALID,18.6694,VALID,360,VALID,0,
2013-11-15, 02:31:05,VALID,916.613,VALID,0,VALID,97.4501,VALID,0,VALID,18.6319,VALID,12,VALID,0,
2013-11-15, 02:32:05,VALID,916.564,VALID,0,VALID,97.4654,VALID,0,VALID,18.6333,VALID,7,VALID,0,
2013-11-15, 02:33:05,VALID,916.567,VALID,0,VALID,97.4882,VALID,0,VALID,18.6124,VALID,349,VALID,0,
2013-11-15, 02:34:05,VALID,916.555,VALID,0,VALID,97.4882,VALID,0,VALID,18.5929,VALID,360,VALID,0,
2013-11-15, 02:35:05,VALID,916.54,VALID,0,VALID,97.4806,VALID,0,VALID,18.5929,VALID,357,VALID,0,
2013-11-15, 02:36:05,VALID,916.505,VALID,0,VALID,97.473,VALID,0,VALID,18.5929,VALID,300,VALID,0,
2013-11-15, 02:37:05,VALID,916.516,VALID,0,VALID,97.4806,VALID,0,VALID,18.572,VALID,9,VALID,0,
2013-11-15, 02:38:05,VALID,916.534,VALID,0,VALID,97.4577,VALID,0,VALID,18.5929,VALID,10,VALID,0,
2013-11-15, 02:39:05,VALID,916.51,VALID,0,VALID,97.4577,VALID,0,VALID,18.5929,VALID,15,VALID,0,
2013-11-15, 02:40:05,VALID,916.477,VALID,0,VALID,97.4882,VALID,0,VALID,18.6124,VALID,2,VALID,0,
2013-11-15, 02:41:05,VALID,916.489,VALID,0,VALID,97.4654,VALID,0,VALID,18.5929,VALID,334,VALID,0,
2013-11-15, 02:42:05,VALID,916.503,VALID,0,VALID,97.4806,VALID,0,VALID,18.5734,VALID,332,VALID,0,
2013-11-15, 02:43:05,VALID,916.43,VALID,0,VALID,97.4806,VALID,0,VALID,18.5734,VALID,13,VALID,0,
2013-11-15, 02:44:05,VALID,916.458,VALID,0,VALID,97.473,VALID,0,VALID,18.572,VALID,321,VALID,0,
2013-11-15, 02:45:05,VALID,916.394,VALID,0,VALID,97.4882,VALID,0,VALID,18.5734,VALID,7,VALID,0,
2013-11-15, 02:46:05,VALID,916.344,VALID,0,VALID,97.473,VALID,0,VALID,18.5734,VALID,18,VALID,0,
2013-11-15, 02:47:05,VALID,916.297,VALID,0,VALID,97.4882,VALID,0,VALID,18.5734,VALID,10,VALID,0,
2013-11-15, 02:48:05,VALID,916.362,VALID,0,VALID,97.473,VALID,0,VALID,18.5734,VALID,322,VALID,0,
2013-11-15, 02:49:05,VALID,916.304,VALID,0,VALID,97.4806,VALID,0,VALID,18.5734,VALID,337,VALID,0,
2013-11-15, 02:50:05,VALID,916.298,VALID,0,VALID,97.4806,VALID,0,VALID,18.5929,VALID,6,VALID,0,
2013-11-15, 02:51:05,VALID,916.271,VALID,0,VALID,97.4806,VALID,0,VALID,18.5929,VALID,351,VALID,0,
2013-11-15, 02:52:05,VALID,916.299,VALID,0,VALID,97.4806,VALID,0,VALID,18.6124,VALID,5,VALID,0,
2013-11-15, 02:53:05,VALID,916.268,VALID,0,VALID,97.4806,VALID,0,VALID,18.6124,VALID,7,VALID,0,
2013-11-15, 02:54:05,VALID,916.27,VALID,0,VALID,97.4806,VALID,0,VALID,18.6319,VALID,10,VALID,0,
2013-11-15, 02:55:05,VALID,916.229,VALID,0,VALID,97.4654,VALID,0,VALID,18.6319,VALID,11,VALID,0,
2013-11-15, 02:56:05,VALID,916.178,VALID,0,VALID,97.473,VALID,0,VALID,18.6319,VALID,359,VALID,0,
2013-11-15, 02:57:05,VALID,916.229,VALID,0,VALID,97.4654,VALID,0,VALID,18.6319,VALID,26,VALID,0,
2013-11-15, 02:58:05,VALID,916.204,VALID,0,VALID,97.473,VALID,0,VALID,18.6319,VALID,356,VALID,0,
2013-11-15, 02:59:05,VALID,916.228,VALID,0,VALID,97.4654,VALID,0,VALID,18.6319,VALID,351,VALID,0,
2013-11-15, 03:00:05,VALID,916.194,VALID,0,VALID,97.4806,VALID,0,VALID,18.6319,VALID,349,VALID,0,
2013-11-15, 03:01:05,VALID,916.224,VALID,0,VALID,97.4882,VALID,0,VALID,18.6513,VALID,11,VALID,0,
2013-11-15, 03:02:05,VALID,916.202,VALID,0,VALID,97.4654,VALID,0,VALID,18.6513,VALID,36,VALID,0,
2013-11-15, 03:03:05,VALID,916.213,VALID,0,VALID,97.4806,VALID,0,VALID,18.6513,VALID,8,VALID,0,
2013-11-15, 03:04:05,VALID,916.241,VALID,0,VALID,97.473,VALID,0,VALID,18.6513,VALID,10,VALID,0,
2013-11-15, 03:05:05,VALID,916.226,VALID,0,VALID,97.4806,VALID,0,VALID,18.6903,VALID,356,VALID,0,
2013-11-15, 03:06:05,VALID,916.201,VALID,0,VALID,97.4577,VALID,0,VALID,18.6708,VALID,5,VALID,0,
2013-11-15, 03:07:05,VALID,916.214,VALID,0,VALID,97.473,VALID,0,VALID,18.6708,VALID,14,VALID,0,
2013-11-15, 03:08:04,VALID,916.222,VALID,0,VALID,97.473,VALID,0,VALID,18.6708,VALID,19,VALID,0,
2013-11-15, 03:09:04,VALID,916.209,VALID,0,VALID,97.473,VALID,0,VALID,18.6903,VALID,6,VALID,0,
2013-11-15, 03:10:04,VALID,916.159,VALID,0,VALID,97.473,VALID,0,VALID,18.6708,VALID,356,VALID,0,
2013-11-15, 03:11:04,VALID,916.23,VALID,0,VALID,97.473,VALID,0,VALID,18.6708,VALID,360,VALID,0,
2013-11-15, 03:12:04,VALID,916.214,VALID,0,VALID,97.4806,VALID,0,VALID,18.6708,VALID,5,VALID,0,
2013-11-15, 03:13:04,VALID,916.22,VALID,0,VALID,97.4806,VALID,0,VALID,18.6918,VALID,351,VALID,0,
2013-11-15, 03:14:04,VALID,916.244,VALID,0,VALID,97.4806,VALID,0,VALID,18.6708,VALID,358,VALID,0,
2013-11-15, 03:15:04,VALID,916.218,VALID,0,VALID,97.4654,VALID,0,VALID,18.6513,VALID,15,VALID,0,
2013-11-15, 03:16:04,VALID,916.265,VALID,0,VALID,97.473,VALID,0,VALID,18.6708,VALID,15,VALID,0,
2013-11-15, 03:17:04,VALID,916.264,VALID,0,VALID,97.4654,VALID,0,VALID,18.6708,VALID,5,VALID,0,
2013-11-15, 03:18:04,VALID,916.279,VALID,0,VALID,97.4806,VALID,0,VALID,18.6513,VALID,348,VALID,0,
2013-11-15, 03:19:04,VALID,916.289,VALID,0,VALID,97.473,VALID,0,VALID,18.6513,VALID,1,VALID,0,
2013-11-15, 03:20:04,VALID,916.319,VALID,0,VALID,97.4882,VALID,0,VALID,18.6513,VALID,22,VALID,0,
2013-11-15, 03:21:04,VALID,916.287,VALID,0,VALID,97.4577,VALID,0,VALID,18.6708,VALID,10,VALID,0,
2013-11-15, 03:22:04,VALID,916.25,VALID,0,VALID,97.4425,VALID,0,VALID,18.6708,VALID,26,VALID,0,
2013-11-15, 03:23:04,VALID,916.255,VALID,0,VALID,97.4806,VALID,0,VALID,18.6708,VALID,15,VALID,0,
2013-11-15, 03:24:04,VALID,916.267,VALID,0,VALID,97.4654,VALID,0,VALID,18.6708,VALID,29,VALID,0,
2013-11-15, 03:25:04,VALID,916.281,VALID,0,VALID,97.473,VALID,0,VALID,18.6708,VALID,22,VALID,0,
2013-11-15, 03:26:04,VALID,916.244,VALID,0,VALID,97.473,VALID,0,VALID,18.6513,VALID,360,VALID,0,
2013-11-15, 03:27:04,VALID,916.248,VALID,0,VALID,97.473,VALID,0,VALID,18.6513,VALID,13,VALID,0,
2013-11-15, 03:28:04,VALID,916.242,VALID,0,VALID,97.4654,VALID,0,VALID,18.6319,VALID,11,VALID,0,
2013-11-15, 03:29:04,VALID,916.237,VALID,0,VALID,97.4882,VALID,0,VALID,18.6124,VALID,4,VALID,0,
2013-11-15, 03:30:04,VALID,916.217,VALID,0,VALID,97.4882,VALID,0,VALID,18.6124,VALID,335,VALID,0,
2013-11-15, 03:31:04,VALID,916.22,VALID,0,VALID,97.4882,VALID,0,VALID,18.6124,VALID,11,VALID,0,
2013-11-15, 03:32:04,VALID,916.256,VALID,0,VALID,97.4959,VALID,0,VALID,18.5929,VALID,33,VALID,0,
2013-11-15, 03:33:04,VALID,916.259,VALID,0,VALID,97.4882,VALID,0,VALID,18.6124,VALID,17,VALID,0,
2013-11-15, 03:34:04,VALID,916.288,VALID,0,VALID,97.473,VALID,0,VALID,18.6124,VALID,24,VALID,0,
2013-11-15, 03:35:04,VALID,916.235,VALID,0,VALID,97.4806,VALID,0,VALID,18.6109,VALID,7,VALID,0,
2013-11-15, 03:36:04,VALID,916.17,VALID,0,VALID,97.4959,VALID,0.107441,VALID,18.5914,VALID,9,VALID,0,
2013-11-15, 03:37:04,VALID,916.234,VALID,0,VALID,97.4959,VALID,0,VALID,18.5929,VALID,7,VALID,0,
2013-11-15, 03:38:04,VALID,916.262,VALID,0,VALID,97.4959,VALID,0,VALID,18.5734,VALID,3,VALID,0,
2013-11-15, 03:39:04,VALID,916.253,VALID,0,VALID,97.4959,VALID,0,VALID,18.533,VALID,14,VALID,0,
2013-11-15, 03:40:04,VALID,916.25,VALID,0,VALID,97.4959,VALID,0,VALID,18.5539,VALID,15,VALID,0,
2013-11-15, 03:41:04,VALID,916.226,VALID,0,VALID,97.4959,VALID,0,VALID,18.533,VALID,350,VALID,0,
2013-11-15, 03:42:04,VALID,916.235,VALID,0,VALID,97.4882,VALID,0,VALID,18.5539,VALID,24,VALID,0,
2013-11-15, 03:43:04,VALID,916.265,VALID,0,VALID,97.5187,VALID,0,VALID,18.5344,VALID,17,VALID,0,
2013-11-15, 03:44:04,VALID,916.303,VALID,0,VALID,97.5035,VALID,0,VALID,18.5344,VALID,11,VALID,0,
2013-11-15, 03:45:04,VALID,916.304,VALID,0,VALID,97.5187,VALID,0,VALID,18.5149,VALID,16,VALID,0,
2013-11-15, 03:46:04,VALID,916.284,VALID,0,VALID,97.5264,VALID,0,VALID,18.4954,VALID,358,VALID,0,
2013-11-15, 03:47:04,VALID,916.329,VALID,0,VALID,97.4959,VALID,0,VALID,18.4954,VALID,16,VALID,0,
2013-11-15, 03:48:04,VALID,916.336,VALID,0,VALID,97.5111,VALID,0,VALID,18.5149,VALID,28,VALID,0,
2013-11-15, 03:49:04,VALID,916.321,VALID,0,VALID,97.5187,VALID,0,VALID,18.5149,VALID,13,VALID,0,
2013-11-15, 03:50:04,VALID,916.332,VALID,0,VALID,97.4959,VALID,0,VALID,18.4954,VALID,9,VALID,0,
2013-11-15, 03:51:04,VALID,916.274,VALID,0,VALID,97.4959,VALID,0,VALID,18.4759,VALID,10,VALID,0,
2013-11-15, 03:52:04,VALID,916.289,VALID,0,VALID,97.5111,VALID,0,VALID,18.4954,VALID,2,VALID,0,
2013-11-15, 03:53:04,VALID,916.274,VALID,0,VALID,97.5111,VALID,0,VALID,18.4759,VALID,12,VALID,0,
2013-11-15, 03:54:04,VALID,916.288,VALID,0,VALID,97.5111,VALID,0,VALID,18.4759,VALID,10,VALID,0,
2013-11-15, 03:55:04,VALID,916.327,VALID,0,VALID,97.5187,VALID,0,VALID,18.4773,VALID,20,VALID,0,
2013-11-15, 03:56:04,VALID,916.339,VALID,0,VALID,97.4959,VALID,0,VALID,18.4759,VALID,350,VALID,0,
2013-11-15, 03:57:04,VALID,916.309,VALID,0,VALID,97.5111,VALID,0,VALID,18.4564,VALID,353,VALID,0,
2013-11-15, 03:58:04,VALID,916.291,VALID,0,VALID,97.5264,VALID,0,VALID,18.4759,VALID,1,VALID,0,
2013-11-15, 03:59:04,VALID,916.305,VALID,0,VALID,97.5111,VALID,0,VALID,18.4369,VALID,349,VALID,0,
2013-11-15, 04:00:04,VALID,916.285,VALID,0,VALID,97.5111,VALID,0,VALID,18.4564,VALID,6,VALID,0,